Hourly Data Report for October 21, 2013

All times are specified in Local Standard Time (LST). Add 1 hour to adjust for Daylight Saving Time where and when it is observed.

KUGAARUK CLIMATE
NUNAVUT

68°32'15.060" N
89°47'47.020" W
15.80 m
2303094
71407
NBB

Download Data

Hourly Data (October 2013)
Hourly Data Report for October 21, 2013
Temp Definition
°C
Dew Point Temp Definition
°C
Rel Hum Definition
%
Wind Dir Definition
10's deg

Wind Spd Definition
km/h
Visibility Definition
km
Stn Press Definition
kPa
Hmdx Definition


Wind Chill Definition


Weather Definition


TIME
00:00 -4.1 -4.7 96 13 2   102.06   -5 LegendNANA
01:00 -4.4 -5.0 96 6 2   102.05   -5 LegendNANA
02:00 -4.5 -5.2 95 4 2   102.05   -5 LegendNANA
03:00 -4.5 -5.1 96 10 4   102.06   -6 LegendNANA
04:00 -4.4 -5.1 95 1 2   102.09   -5 LegendNANA
05:00 -4.5 -5.1 96 5 2   102.10   -5 LegendNANA
06:00 -4.5 -5.1 96 10 6   102.09   -7 LegendNANA
07:00 -4.1 -4.7 96 10 4   102.07   -6 LegendNANA
08:00 -4.4 -5.3 93 12 4   102.08   -6 LegendNANA
09:00 -4.7 -5.8 92 2 4   102.09   -6 LegendNANA
10:00 -4.6 -5.8 91 5 4   102.07   -6 LegendNANA
11:00 -4.5 -5.8 91 6 4   102.07   -6 LegendNANA
12:00 -4.9 -6.2 91 6 6   102.08   -8 LegendNANA
13:00 -5.2 -6.6 90 10 9   102.08   -9 LegendNANA
14:00 -8.0 -9.4 90 11 6   102.09   -11 LegendNANA
15:00 -9.4 -10.2 94 8 6   102.10   -13 LegendNANA
16:00 -11.9 -13.0 92 6 7   102.10   -16 LegendNANA
17:00 -13.1 -14.2 91 5 6   102.11   -17 LegendNANA
18:00 -14.9 -16.5 88 5 6   102.12   -19 LegendNANA
19:00 -15.5 -17.2 87 6 2   102.11   -17 LegendNANA
20:00 -15.4 -17.0 88 6 2   102.08   -17 LegendNANA
21:00 -15.0 -16.6 88 6 2   102.06   -16 LegendNANA
22:00 -13.9 -15.4 88   0   102.04     LegendNANA
23:00 -12.6 -14.0 89   0   102.02     LegendNANA

Notes on Data Quality.

Legend

  • E = Estimated
  • M = Missing
  • NA = Not Available
  • ‡ = Partner data that is not subject to review by the National Climate Archives
Date modified: